Theta_e
324 321 320 319 321 319 315 316 315 312 311 309 308 309 310 313 313 310 310 308 305 306 310 315 319 323 324 323 324 325 326 326 326 329 329 328 327 325 326 325 324 326 326
321 321 321 320 320 318 318 315 311 306 303 303 302 302 302 306 303 303 302 302 302 303 305 309 312 315 319 324 323 322 323 325 325 325 326 327 328 326 325 326 324 324 325
316 317 320 320 320 319 318 315 311 305 302 302 302 302 302 302 302 302 302 302 303 303 303 305 305 307 310 316 321 323 323 322 322 322 325 327 325 327 325 325 326 324 324
311 311 313 315 318 319 317 313 309 304 303 303 303 303 302 302 302 302 301 301 301 302 301 302 303 302 303 305 315 320 323 323 323 323 323 323 327 326 326 325 325 326 324
311 311 310 310 313 315 314 311 307 304 303 303 303 303 302 302 302 301 301 300 301 299 299 300 301 301 301 302 308 314 318 321 323 323 323 324 323 326 326 326 325 325 324
310 311 311 310 310 311 310 309 306 304 304 303 303 303 302 302 302 301 299 301 298 298 298 300 300 298 301 301 300 308 312 313 318 319 321 323 324 325 325 327 326 324 324
309 310 311 311 310 309 308 308 306 304 304 303 303 303 303 302 301 301 300 297 299 297 299 299 298 295 297 296 297 304 309 312 309 309 312 318 320 321 321 322 327 326 324
308 308 309 310 310 308 308 308 305 304 303 303 303 300 299 300 301 301 300 298 297 298 298 295 295 295 292 294 299 298 298 300 305 305 304 306 315 319 320 321 321 324 325
307 307 307 307 308 309 307 307 306 304 303 303 302 302 298 299 296 298 298 296 296 295 294 294 292 292 292 292 293 294 294 294 296 303 304 302 305 315 318 318 320 322 326
309 308 307 306 307 308 307 306 305 304 303 302 301 301 300 298 294 293 294 295 294 293 292 292 292 292 292 294 293 295 296 297 296 296 298 304 302 304 311 316 318 319 324
307 306 306 305 304 307 306 304 304 303 302 301 297 298 294 295 295 293 293 292 293 292 293 292 292 293 293 293 292 293 293 295 295 295 296 299 304 302 304 309 313 318 318
305 305 305 304 303 304 303 301 299 297 296 296 295 296 295 294 293 293 292 292 292 293 292 292 293 293 292 292 294 295 293 293 295 296 299 302 305 304 304 306 308 313 319
304 303 302 302 300 298 297 296 297 298 298 297 295 295 295 294 292 292 292 292 292 292 292 292 292 292 292 292 293 294 294 295 295 296 296 296 304 304 302 306 307 307 311
301 299 298 297 297 297 297 297 297 297 296 295 293 292 292 292 292 292 293 292 292 291 291 291 291 291 291 292 292 292 291 293 293 291 293 294 295 298 301 302 303 304 302
298 297 297 297 297 297 298 297 295 293 293 292 292 292 292 292 291 291 291 292 292 291 290 290 290 290 291 291 291 291 292 293 293 293 293 292 293 294 295 299 300 301 302
296 297 298 298 298 298 296 295 292 293 293 293 292 292 291 290 289 288 288 289 290 291 290 289 289 290 289 290 290 290 290 290 289 289 290 292 293 294 294 302 298 301 302
297 298 297 295 296 295 293 293 294 293 292 291 290 289 288 288 288 288 288 288 289 289 289 289 288 288 289 289 289 288 289 289 291 292 292 292 292 293 294 295 297 298 302
295 294 294 293 293 293 293 292 291 290 290 288 288 288 287 287 287 287 287 287 288 288 288 288 288 288 288 288 288 289 289 289 289 289 288 288 289 290 291 293 295 296 298
294 294 293 293 293 292 291 290 288 288 287 287 287 287 287 286 286 285 285 285 285 285 286 286 286 286 286 287 287 287 287 287 287 287 287 287 288 288 289 290 293 295 296
294 293 292 292 290 289 287 287 286 286 286 286 286 285 284 284 283 283 283 283 283 284 284 284 285 285 285 285 286 286 286 286 287 287 287 288 288 287 288 290 291 294 296
292 293 291 288 287 286 286 286 285 285 285 284 284 284 283 283 283 284 284 284 284 284 284 284 285 285 285 285 285 285 285 285 286 286 286 287 288 288 288 289 291 293 295
294 292 287 286 286 285 284 284 284 284 284 284 283 283 282 282 282 283 283 284 284 284 284 284 284 284 284 284 285 284 284 284 285 284 285 286 287 288 288 291 292 293 294
287 286 286 285 284 284 283 283 283 283 283 283 282 282 282 282 282 282 282 282 282 282 283 283 284 284 284 284 284 284 284 284 284 284 285 286 287 287 287 287 289 292 294
286 285 284 284 283 283 282 281 282 282 282 282 282 282 282 282 282 282 282 282 283 283 283 283 283 283 283 283 284 284 284 284 284 284 285 285 285 285 285 286 286 289 291
284 284 283 283 282 281 281 281 282 282 281 281 281 281 281 282 282 282 283 283 283 283 283 284 284 284 284 283 284 284 284 284 285 284 284 284 284 285 285 285 286 286 289
283 283 282 281 281 280 280 281 281 281 281 282 281 281 282 282 283 283 283 284 284 284 284 284 284 284 284 284 284 284 285 285 285 284 284 284 284 285 285 287 287 287 287
Wind_Speed
12 13 12 12 12 11 9 8 8 8 8 7 6 6 6 5 5 7 9 10 11 10 10 10 10 12 13 16 15 17 17 18 20 24 26 26 26 25 26 26 27 28 28
14 14 14 14 13 12 11 11 9 8 7 6 5 6 6 4 5 7 10 12 14 13 10 9 10 12 12 13 17 19 18 20 21 24 27 28 29 28 29 31 32 32 32
15 15 15 15 15 14 13 11 10 9 8 6 5 4 5 6 7 6 7 10 12 11 13 12 12 12 12 14 14 16 19 20 21 22 26 29 30 31 31 34 36 36 35
16 16 16 17 16 17 16 14 12 11 9 8 6 5 5 5 4 5 5 7 8 10 12 13 13 14 15 15 15 16 17 21 21 21 22 27 30 33 35 36 39 40 39
19 19 19 18 18 20 20 18 17 15 13 11 10 8 7 6 6 6 2 5 5 13 12 12 13 15 15 16 16 16 15 17 19 21 22 21 27 33 39 42 42 43 42
23 24 24 23 22 23 23 22 22 20 18 15 13 13 13 11 11 7 5 3 6 6 12 10 13 17 15 17 18 16 15 15 12 13 16 19 23 25 39 42 46 46 45
27 28 29 29 27 28 29 28 25 24 23 20 14 15 17 16 16 15 10 6 3 8 5 8 16 20 18 20 20 15 16 13 13 14 16 17 24 20 23 30 54 47 51
32 33 34 35 35 34 34 33 31 30 27 23 11 4 2 5 12 19 15 8 7 3 4 12 13 17 21 18 16 17 17 18 17 16 17 21 20 22 20 22 34 54 49
33 37 41 43 44 42 42 41 39 37 30 27 26 8 2 5 0 8 11 9 5 7 9 9 17 14 19 20 20 23 24 22 18 19 18 21 21 21 18 18 24 43 48
36 37 38 40 47 47 44 44 43 39 35 25 17 20 8 4 3 2 4 5 13 5 18 18 17 17 15 17 18 18 18 16 17 20 21 19 21 20 17 18 22 29 41
26 25 26 29 36 40 39 36 32 28 26 16 7 5 5 3 5 4 3 3 15 11 11 16 19 14 13 17 21 21 22 22 21 21 22 21 18 18 22 18 17 21 26
29 27 24 22 24 23 20 18 15 14 12 9 8 2 3 3 3 4 2 3 10 15 16 17 13 17 18 15 16 17 22 22 21 18 18 19 17 17 16 20 23 20 19
26 23 17 9 7 11 13 13 11 9 6 6 7 7 6 7 8 11 10 13 6 12 13 18 17 12 14 16 16 16 18 20 19 19 17 18 14 17 16 15 21 21 18
17 8 7 15 15 12 9 8 10 10 7 5 6 8 7 8 11 13 16 9 8 8 14 13 15 17 15 17 18 21 24 23 27 25 24 22 17 14 16 15 17 18 20
6 13 12 9 7 6 11 11 10 3 1 4 7 9 12 14 13 15 17 20 12 8 10 15 17 14 16 18 19 20 21 21 20 22 24 25 23 19 17 15 14 15 21
15 11 4 4 10 12 13 11 6 7 9 11 10 10 10 12 15 16 18 21 22 18 10 17 19 23 22 22 21 22 25 27 30 29 27 23 21 20 19 15 17 15 13
9 2 6 8 15 12 5 7 10 11 11 11 12 14 16 16 18 19 20 22 23 23 13 22 22 23 26 25 25 26 26 25 23 20 21 22 22 21 19 19 16 15 16
5 9 9 10 9 10 10 9 10 12 13 15 17 18 19 21 21 20 20 22 23 22 21 18 21 19 24 26 26 26 25 25 29 33 34 34 33 32 27 23 22 18 18
7 10 11 12 13 13 13 11 12 13 15 18 19 19 19 18 21 23 26 25 24 23 23 22 25 24 24 26 27 29 33 31 33 34 34 33 31 30 29 29 25 23 21
16 15 13 14 11 10 11 13 15 15 15 15 17 21 24 26 27 26 25 25 23 22 21 22 23 24 21 22 24 23 24 26 28 29 30 30 30 30 29 28 28 27 25
9 14 13 10 11 14 15 13 13 16 20 25 27 28 29 28 25 26 25 24 22 20 21 20 19 21 19 17 17 22 24 26 25 26 28 30 29 31 30 29 28 27 25
17 15 11 13 14 16 16 18 18 19 22 25 26 25 27 26 26 25 24 24 26 24 24 21 21 21 23 21 20 21 22 18 9 21 27 28 26 27 24 20 22 25 25
9 11 13 15 16 15 16 19 20 23 24 25 26 27 26 23 22 24 25 26 26 27 28 29 27 26 24 23 23 21 23 23 23 25 22 21 18 20 21 20 18 17 23
13 15 15 15 14 19 22 23 20 21 23 24 26 26 25 26 23 23 25 26 28 29 30 31 32 33 33 30 28 27 27 27 27 26 24 17 22 25 28 27 24 20 13
14 15 12 15 19 23 23 22 20 23 25 26 24 22 23 23 23 24 28 29 29 29 29 29 32 36 35 34 30 26 23 20 13 20 23 22 20 21 26 29 26 27 23
13 12 16 18 19 23 22 21 21 24 23 21 21 21 22 24 24 24 26 25 25 21 20 22 28 31 32 33 37 34 24 20 17 6 20 16 17 14 5 11 14 19 26
Wind_Direction
267 269 272 274 273 279 279 287 295 300 298 300 307 323 349 358 356 348 345 340 349 345 332 322 317 310 297 283 288 290 282 268 260 249 240 240 241 239 236 227 223 217 216
268 266 267 269 267 271 276 287 294 299 301 307 319 327 332 350 359 355 352 349 350 359 6 351 328 316 312 293 282 271 276 279 268 259 255 253 249 242 239 232 225 222 220
273 272 265 263 264 260 262 263 271 275 276 280 289 307 313 319 328 353 10 15 15 16 15 17 13 352 334 315 296 276 268 272 273 272 266 257 253 249 242 237 229 226 225
270 271 268 268 263 258 253 251 255 252 250 252 256 271 279 289 290 315 321 2 1 7 3 4 358 0 349 338 328 301 283 272 272 271 279 271 259 254 247 240 235 229 227
264 265 269 268 257 248 246 248 248 244 243 244 251 258 260 265 269 299 205 317 3 350 350 351 343 342 348 349 339 335 321 294 279 275 276 282 269 259 252 244 236 232 229
265 261 261 259 254 246 244 240 239 237 242 247 247 255 256 261 263 257 258 164 313 336 336 337 341 346 337 338 340 333 322 327 320 303 278 270 266 277 261 244 241 234 231
273 264 261 256 250 245 250 249 241 236 237 237 240 254 256 258 251 233 211 266 230 320 318 310 319 323 323 320 325 333 336 322 329 328 307 283 267 280 286 268 232 237 235
279 270 266 262 254 247 244 241 236 233 235 232 217 207 290 270 233 216 223 238 290 267 284 307 313 313 317 321 312 317 321 322 317 322 324 309 279 265 291 287 251 241 229
289 281 273 270 264 252 246 243 237 232 228 227 220 204 141 221 307 217 232 277 246 295 312 315 311 314 312 314 306 305 310 313 314 306 311 319 306 274 276 296 287 243 230
297 295 289 279 270 262 252 249 244 236 229 220 216 225 230 164 180 290 244 221 289 289 310 311 310 314 314 313 314 313 322 319 321 317 305 297 312 295 289 267 279 273 246
312 308 302 292 277 267 260 255 244 237 232 222 185 172 216 223 212 188 246 273 308 307 305 303 307 306 304 301 303 308 304 306 315 316 310 293 283 301 280 288 298 280 267
314 309 304 289 276 262 250 231 190 163 140 138 124 107 55 6 6 351 328 297 282 305 303 300 287 293 303 302 300 298 308 307 312 312 328 308 270 278 283 275 286 304 268
308 306 303 273 204 150 127 109 95 73 30 10 338 315 311 272 266 287 270 278 263 295 293 291 287 292 295 296 295 298 293 302 306 307 314 329 306 277 285 268 263 289 297
298 286 163 133 116 92 66 45 17 354 341 318 282 288 297 288 269 266 260 261 286 271 280 280 286 290 285 285 285 286 291 294 296 302 299 309 314 302 286 280 276 264 288
216 152 132 108 72 37 360 359 344 344 296 304 279 281 272 278 274 271 267 264 250 287 286 283 287 286 281 281 283 285 286 289 292 295 300 301 300 300 301 268 277 268 263
172 149 110 353 330 335 336 330 318 297 281 276 272 264 266 275 280 280 277 275 268 256 274 276 276 283 283 278 277 278 278 282 284 288 290 294 295 293 293 269 262 269 262
161 193 315 332 334 325 317 293 291 288 292 299 298 297 293 292 286 285 282 276 267 259 259 275 276 278 279 277 277 278 278 280 279 278 281 285 289 292 290 285 272 260 268
339 351 5 349 334 323 320 314 307 305 302 299 298 296 293 294 289 289 284 279 277 271 264 276 278 274 274 276 278 277 277 270 273 276 278 278 280 281 282 283 279 268 250
358 352 351 336 317 306 297 305 307 307 302 298 294 288 288 291 291 290 289 282 277 274 267 269 275 274 269 268 265 265 269 271 271 273 274 275 275 274 274 271 271 267 253
357 341 329 303 299 306 314 313 308 303 296 291 291 291 295 297 295 290 283 277 276 272 270 268 270 272 267 264 260 262 266 265 263 264 266 268 272 274 271 267 261 259 250
312 318 316 317 317 318 322 319 313 307 301 299 298 300 300 299 290 284 281 279 274 266 267 264 261 263 260 252 242 253 259 268 269 264 266 270 268 274 272 268 262 257 251
300 301 307 318 323 322 318 313 310 308 300 296 294 295 296 294 292 288 282 277 273 271 268 262 258 257 260 255 247 243 247 257 272 270 263 263 261 267 267 265 262 253 250
312 318 320 322 320 320 322 316 310 302 301 300 299 297 295 291 289 285 280 278 276 273 267 267 267 263 264 254 248 245 240 244 253 257 261 268 259 267 276 280 280 266 248
323 324 322 321 323 321 322 318 314 309 307 304 303 303 297 295 289 289 288 280 273 269 263 260 255 257 258 257 246 246 245 245 254 256 253 258 264 268 276 276 273 262 267
323 322 323 323 325 324 328 322 321 318 314 310 311 302 297 294 296 294 288 282 279 273 272 265 263 262 257 254 248 243 236 234 247 249 244 242 258 263 268 272 270 256 256
324 328 325 326 328 328 329 328 327 322 313 309 307 298 296 293 298 304 298 293 292 287 280 279 274 262 260 255 252 245 240 233 237 236 243 222 242 244 274 270 266 255 248